Погода в Когалыме

Погода в Когалыме : погода сейчас, прогноз погоды и архив. Всё, что Вы хотите узнать о погоде в Когалыме!

Хотите узнать прогноз погоды в Когалыме? Тогда Вам сюда: Погода в Когалыме

Поиск расширенной информации на нашем сайте:

Другие новости

Новости СМИ2

Главная страница сайта

Новости сайта

02.10.2013

Напоминаем, что на нашем новом сайте вы можете получить высокодетализированные прогнозы погоды по пунктам России, СНГ и мира (включающие важные для авиации метеовеличины, такие как направление и скорость ветра, видимость, явления погоды, количество и форма облачности, нижняя и верхняя граница облачности), а также ознакомиться с разнообразными материалами по авиационной метеорологии и подборкой полезных ссылок на эту тему.

Сайт Метеоцентр.Азия посвящён разработке технологий оптимизации авиаметеорологического обслуживания, включая проектирование и перспективное создание нескольких автоматизированных авиаметеорологических систем:
- система выпуска высокодетальных прогностических карт явлений погоды для нижнего воздушного пространства по России и ближнему зарубежью;
- система верификации прогнозов TAF (выпускаемых синоптиками официальных АМСГ РФ и ближнего зарубежья) и AUTOTAF (выпускаемых сайтом Метеоцентр.Азия) - выявление ошибок, онлайн-сопоставление с фактической погодой METAR, автоматическое внесение коррективов в прогнозы при резком отклонении фактической погоды от прогноза, подсчёт оправдываемости прогнозов по элементам и в целом;
- система обработки, анализа и отображения авиаметеорологической информации для применения провайдерами метеорологической информации.

Рекомендуем: Материалы по теме рецепт рисовой каши.

Погода в Когалыме - сегодня

Время (UTC), дата Ветер
(°,м/с) 
Видим.   Явления Облачность Т
(°С)
Тd
(°С)
f(%) Тe
(°С)
Pmin
(гПа)
dP
(гПа)
Po
(мм)
O2
(г/м3)
Тmin Tmax R s Состояние
почвы
03 14.01.17 060 (СВ) 20000 м    6/3 300 м средняя 
[St|Ac trans]
-34 -36.8 76 -35  1029  1.7  764  354  -34      56  равномерный
сухой снег
100% 
06 14.01.17 090 (В) 20000 м    3/0 верхняя 
[Ci fib]
-33.2 -36.3 74 -34  1029.5  0.6  765  353  -34.4         
09 14.01.17 100 (В) 20000 м    6/6 870 м 
[Sc]
-30.7 -33.6 76 -36  1030.4  766  350           
12 14.01.17 070 (В) 20000 м    6/6 1380 м 
[Sc]
-31.2 -33.6 79 -32  1032.6  2.2  767  351           
15 14.01.17 110 (В) 20000 м    6/6 600 м 
[Sc]
-31.2 -33.6 79 -35  1033.1  0.5  768  351    -30.7       
18 14.01.17 130 (ЮВ) 20000 м    6/0 средняя 
[Ac trans]
-30.2 -32.6 80 -36  1033.2  0.1  768  350           
21 14.01.17 140 (ЮВ) 2200 м  слаб. снег  10/4 1000 м средняя 
[Sc|As op]
-27.3 -29.8 79 -33  1033.1  768  346           
00 15.01.17 140 (ЮВ) 20000 м  в посл. час снег  10/4 1000 м средняя 
[Sc|As op]
-25.1 -27.6 80 -31  1032.2  -0.8  767  342           
03 15.01.17 140 (ЮВ) 10 км  слаб. снег  10/5 1080 м средняя 
[Sc|As op]
-24 -26.5 80 -30  1031.1  -1.1  766  340  -31.2    0.7  46  равномерный
сухой снег
100% 
06 15.01.17 150 (ЮВ) 2800 м  слаб. снег  10/6 870 м средняя 
[Sc|As op]
-22 -24.6 79 -28  1030.1  -0.9  766  337           
09 15.01.17 150 (ЮВ) 20000 м  в посл. час снег  8/3 600 м средняя 
[Sc|Ac trans]
-21.2 -23.7 80 -26  1029.5  -0.5  765  336           
12 15.01.17 130 (ЮВ) 20000 м  {снег}  4/0 верхняя 
[Ci fib]
-24.4 -26.9 80 -28  1031.1  1.4  766  341           
15 15.01.17 160 (Ю) 20000 м    10/0 верхняя 
[Cs]
-23.9 -27.1 75 -27  1031.1  766  340    -21.2     
18 15.01.17 170 (Ю) 6000 м  слаб. снег  10/6 240 м средняя 
[Sc|As op]
-20.5 -23.8 75 -25  1030.3  -0.6  766  335           
21 15.01.17 170 (Ю) 2000 м  снег  10/6 210 м средняя 
[Sc|As op]
-16.9 -19.5 80 -21  1029.7  -0.5  765  330           
00 16.01.17 170 (Ю) 6000 м  слаб. снег  10/6 960 м средняя 
[Sc|As op]
-15.3 -18 80 -19  1029.1  -0.6  765  328           
03 16.01.17 210 (ЮЗ) 20000 м  {снег}  10/3 300 м средняя 
[St|As op]
-12.7 -15.4 80 -17  1028.6  -0.4  765  324  -23.9    49  равномерный
сухой снег
100% 
06 16.01.17 210 (ЮЗ) 1900 м  снег  10/6 600 м средняя 
[Sc|As op]
-12.3 -15 80 -17  1028.1  -0.5  764  324           
09 16.01.17 220 (ЮЗ) 20000 м  {снег}  10/0 средняя 
[Ac As]
-11.9 -15.4 75 -16  1027.8  -0.3  764  323           
12 16.01.17 200 (Ю) 20000 м  {снег}  5/0 верхняя 
[Ci fib]
-14.2 -16.9 80 -19  1028.5  0.6  764  326           
15 16.01.17 220 (ЮЗ) 20000 м    5/0 верхняя 
[Ci fib]
-15.6 -18.3 80 -20  1028.3  -0.2  764  328    -11.9  0.9     
18 16.01.17 210 (ЮЗ) 20000 м    6/3 1000 м средняя 
[Sc|Ac trans]
-14.9 -18.3 75 -20  1027.7  -0.6  764  327           
21 16.01.17 210 (ЮЗ) 20000 м    6/3 1000 м средняя 
[Sc|Ac trans]
-15.7 -19.1 75 -21  1027.2  -0.5  764  328           
00 17.01.17 220 (ЮЗ) 20000 м    ясно 
-17.8 -21.2 75 -23  1027.2  764  331           
03 17.01.17 210 (ЮЗ) 20000 м    ясно 
-18.7 -22 75 -24  1027.3  0.1  764  332  -18.7      49  равномерный
сухой снег
100% 
Время (UTC), дата Ветер
(°,м/с) 
Видим.   Явления Облачность Т
(°С)
Тd
(°С)
f(%) Тe
(°С)
Pmin
(гПа)
dP
(гПа)
Po
(мм)
O2
(г/м3)
Тmin Tmax R s Состояние
почвы

Для получения пояснительной информации подведите курсор к названию столбца.

ПОГОДА в Когалыме - архив

Всё, что Вы хотите узнать о погоде в Когалыме - удобно и подробно!

Выберите нужную дату (начиная с 1 января 2015* года) и нажмите кнопку "Найти".
Будут отображены архивные сводки погоды по пункту Когалым, начиная с указанной даты.


Отображать данные в формате CSV (для использования в таблицах Excel)


Внимание! Наш архив погоды предназначен исключительно для личного некоммерческого использования в познавательных целях. Если Вам необходимы официальные справки о состоянии погоды (для производственных, юридических, коммерческих и т.п. целей), обращайтесь в органы Росгидромета.

*Примечание: данная дата относится к архиву по метеостанциям СССР (Россия, СНГ, Балтия).
Архив по метеостанциям Зарубежной Европы и Азии (кроме Китая) хранится 10 дней, по другим регионам земного шара (Китай, Африка, Америка, Австралия, Океания) - 1 день.

Когалым - район местоположения метеостанции


Название, широта, долгота, высота метеостанции:
Когалым 62.2°ш. 74.5°д. 67 м над ур. моря [Российская Федерация]

Дополнительная информация

В oтличие oт бoльшинства пoгoдных сайтoв мы публикуем пoдрoбную метеoинфoрмацию в детальнoм прoфессиoнальнoм фoрмате.

Характеристики температуры и влажнoсти вoздуха измеряются на высoте 2 м в тени вдали oт зданий и деревьев.
Скoрoсть ветра измеряется на высoте 10 м (на урoвне рoста челoвека скoрoсть ветра ниже в 1.5-2 раза). Если метеoстанция нахoдится в гoрoде или в лесу, тo скoрoсть ветра занижена на 2-4 м/с пo сравнению с oткрытым местoм. Скoрoсть ветра над акватoриями крупных рек и oзёр, а также на вершинах хoлмoв на 2-5 м/с выше, чем в oбычных услoвиях.
Атмoсфернoе давление в разных тoчках местнoсти мoжет значительнo oтличаться oт давления на метеoстанции, в зависимoсти oт услoвий рельефа (при пoдъёме на 10 м давление пoнижается примернo на 1 мм рт.ст.).